Dewpoint
23 14 12 15 16 18 19 20 19 18 20 21 21 19 17 17 17 19 18 20 23 19 18 18 18 17 17 18 18 18 17 18 18 18 19 20 20 21 24 27 30 33 35 37 38 40 41 42 42 41 37 36 36 36 35 34 33 33 31 31 31 32 32 32 32 31 32 31 31 30 30 30 30 29 28 27 26 26 26 27 27 26 26 26 25 25
20 15 17 18 17 17 19 23 22 21 22 20 19 18 18 17 15 15 14 21 22 17 17 17 14 13 12 12 10 9 17 16 17 17 17 18 19 20 21 23 26 29 32 33 35 38 39 40 41 40 38 36 35 35 34 34 33 32 31 31 30 30 30 31 31 31 31 32 31 31 30 30 29 29 28 26 25 25 25 26 26 27 26 26 25 25
14 15 17 19 20 22 21 21 20 18 17 19 16 15 12 13 16 14 16 18 19 16 13 12 7 4 -1 -4 -4 -4 -5 2 6 12 13 14 15 18 19 20 22 25 28 31 34 36 38 39 40 39 38 37 36 35 34 34 33 32 31 30 30 30 29 30 30 31 30 31 31 31 30 30 29 28 28 27 26 25 25 25 26 26 26 26 25 25
11 15 15 17 22 18 17 18 17 17 18 16 13 11 12 13 5 5 10 14 11 12 11 10 5 1 1 2 1 2 2 1 2 5 11 14 12 14 17 19 20 21 24 26 30 33 36 37 39 39 38 37 36 35 34 33 33 32 31 30 30 29 28 29 29 31 30 30 29 29 28 29 28 27 28 26 25 24 24 23 24 25 26 25 25 25
9 15 19 20 20 16 17 16 15 14 12 16 15 12 10 8 6 6 5 9 15 9 15 7 -5 -9 -10 -8 -10 -8 6 12 11 11 9 9 15 15 17 18 19 19 21 23 25 29 32 35 37 38 38 37 36 36 35 33 33 32 31 31 30 30 28 28 29 30 29 28 25 24 22 24 23 22 24 23 23 23 23 23 23 23 25 25 25 25
12 13 19 16 17 18 17 16 17 13 12 9 11 13 10 8 7 6 1 -3 -14 -18 3 0 -14 -10 -9 -14 -19 -21 -6 -5 2 5 5 9 11 13 14 15 17 21 21 21 23 25 29 32 34 37 38 37 36 36 36 34 33 33 32 31 30 30 29 28 28 28 27 27 25 22 22 21 22 23 22 23 24 22 22 22 22 22 24 25 25 25
12 14 16 15 16 16 16 15 16 16 13 2 8 11 10 7 4 -1 -4 -14 -9 -15 -10 -5 -28 -12 -21 -21 -21 -15 0 4 7 7 7 6 6 11 13 13 14 16 19 21 22 24 25 28 31 34 36 36 36 35 36 35 34 33 32 31 30 30 29 28 27 27 26 26 25 24 24 24 23 24 23 23 24 23 22 23 21 21 23 23 24 24
16 12 16 16 16 16 14 12 14 14 7 7 8 10 5 -1 -3 -2 1 -10 -9 1 7 1 -12 -17 -11 -18 -5 7 5 2 -0 2 4 5 6 7 9 13 15 16 17 20 21 22 24 25 27 30 33 35 35 35 35 34 34 33 32 31 30 29 29 28 27 26 26 25 24 24 24 25 24 24 24 21 21 21 22 20 20 20 21 22 23 23
12 9 15 14 14 14 13 13 13 12 8 10 10 8 3 1 -2 6 1 4 10 -6 -6 8 7 -7 -3 -4 2 3 -5 -6 -5 -4 1 4 7 7 9 11 13 17 18 19 20 22 23 24 25 27 29 33 34 34 33 33 33 33 32 31 30 29 29 27 26 25 25 27 24 24 24 24 24 23 23 21 21 18 20 17 18 18 20 22 22 22
10 8 13 15 12 10 13 14 14 11 7 4 12 16 17 18 18 12 10 7 3 -6 -8 -9 2 -10 -4 -3 -8 -5 -2 -3 -0 1 4 7 8 9 12 12 13 14 18 20 19 21 22 23 24 25 27 29 32 33 33 32 32 31 31 31 29 28 28 27 25 25 25 25 25 23 23 23 22 22 20 19 18 17 17 16 16 17 18 20 21 21
11 26 23 14 11 8 13 15 14 11 14 18 14 10 -4 12 15 12 8 5 -0 -8 -2 -6 3 -10 -8 -5 -12 -11 -4 2 2 4 6 9 9 10 13 13 16 16 17 19 20 20 21 23 23 24 25 26 28 30 31 30 29 29 30 29 29 28 27 27 25 24 24 24 24 23 22 22 22 21 19 18 17 17 17 16 15 16 17 19 20 21
15 17 16 17 21 15 15 14 16 18 17 5 -0 -12 -14 -11 -1 4 5 5 -7 -4 -0 1 4 -3 -8 -4 -4 -2 5 8 4 3 1 2 3 6 7 12 16 18 19 19 20 20 20 21 22 23 24 25 26 28 28 28 28 28 28 28 28 27 26 26 25 24 23 23 23 23 22 21 21 21 19 18 17 17 17 16 15 15 16 17 19 20
-5 14 17 17 25 12 10 7 4 13 10 -1 -6 0 -14 -8 -18 -16 -4 -15 -8 -5 -1 2 6 1 -2 -8 -4 -0 -0 3 10 10 7 6 6 6 7 9 11 18 20 21 21 21 21 22 22 23 24 24 24 26 26 27 27 26 26 26 26 26 25 25 25 24 23 23 22 22 22 21 21 20 19 18 18 17 17 17 16 16 16 16 18 19
-7 9 15 16 9 16 3 -4 -13 -2 8 -6 -6 -5 -12 -26 -24 -22 -10 -11 -10 -5 -3 -7 -1 -1 -1 -1 2 0 0 2 5 10 11 10 9 8 10 13 14 15 17 21 22 22 22 24 23 23 23 24 24 24 25 26 26 25 25 24 25 25 24 24 24 23 23 22 22 22 21 21 20 20 19 18 18 17 17 17 16 16 16 16 16 18
-21 -2 0 11 6 11 5 -3 -9 -11 3 -2 -7 -11 -3 -5 -18 -18 -18 -16 -6 -1 -4 -1 -13 -2 -9 11 11 3 5 6 6 8 9 12 13 13 13 14 17 19 18 19 21 23 23 24 23 23 23 23 24 24 24 24 24 24 24 23 23 23 23 23 23 23 22 22 22 21 21 20 19 19 19 18 18 17 17 17 17 16 16 16 16 17
-21 -14 -10 14 13 10 8 10 10 -2 -3 5 2 -4 -5 -6 3 -14 -6 -10 -17 -11 -8 -9 -5 3 -1 -0 1 8 1 4 9 12 14 13 14 15 17 18 19 20 20 21 22 22 23 24 24 24 24 23 23 23 23 23 23 23 23 23 22 22 22 22 22 22 22 22 22 21 20 20 19 20 19 19 19 18 18 17 18 17 17 17 17 17
-12 -19 4 16 14 10 8 10 6 -1 -7 -5 -8 -6 1 3 -11 -13 3 1 -5 -7 -7 -7 -8 -8 -7 -7 2 7 10 12 13 13 14 15 15 17 17 19 19 19 20 20 21 22 23 24 24 24 24 24 24 23 23 23 23 22 22 22 22 21 21 21 21 21 21 21 21 21 20 20 19 19 19 18 19 19 18 19 18 18 18 18 17 17
-13 -8 -4 12 9 12 12 14 14 15 3 1 -4 -2 4 5 2 1 -9 -5 -12 -9 -8 -9 -5 -0 -3 -2 10 10 11 12 13 13 14 15 15 15 17 18 19 19 19 19 19 20 22 24 25 25 25 24 24 24 24 23 23 23 22 21 21 21 20 20 20 20 20 20 20 20 20 20 19 19 19 19 19 20 19 18 18 17 17 17 16 16
2 -4 -4 11 12 14 14 15 13 16 14 -3 3 8 -5 -5 -7 4 0 -10 -13 -10 -6 -4 -3 0 -1 5 9 9 11 12 13 14 14 15 15 16 17 17 18 19 19 19 19 19 21 22 23 25 25 25 25 25 24 24 23 23 22 21 21 20 20 20 20 20 20 20 19 19 19 19 19 19 20 20 20 19 18 18 17 16 17 15 14 15
2 -7 -2 7 11 14 6 6 3 6 13 19 15 8 8 2 5 -6 2 2 3 -5 -7 -1 -8 -3 6 7 8 10 11 13 13 15 15 15 16 16 17 17 18 18 19 18 18 18 19 20 22 23 25 25 25 24 24 23 23 22 22 22 21 21 20 20 20 21 20 20 20 19 19 19 19 20 20 19 18 17 17 17 16 15 14 14 14 14
-0 -7 -8 -1 1 3 0 5 3 3 3 7 6 8 3 2 6 9 -1 -1 -2 -7 -7 -6 -5 -2 8 9 11 13 14 15 15 15 16 17 16 16 16 18 18 18 18 19 19 19 18 18 19 21 22 24 24 24 24 23 23 23 23 22 22 21 21 21 21 21 21 21 20 20 18 18 19 18 17 16 15 16 16 15 14 13 14 14 15 15
-1 -9 -0 -3 -10 -4 -4 7 4 3 4 7 9 10 10 2 -2 -4 -1 1 -2 -5 -2 -11 -5 1 8 10 15 16 17 17 17 16 17 17 16 16 18 18 18 18 18 18 20 20 20 18 18 19 19 20 21 22 23 24 23 22 22 22 22 21 21 21 21 21 21 19 19 18 17 16 15 14 14 13 13 14 14 12 12 12 13 15 14 14
11 -3 -8 -2 -6 -5 -7 -7 9 5 5 6 8 7 8 8 7 -2 -2 5 0 1 -2 -4 -7 1 13 11 16 17 18 17 17 17 16 17 17 17 18 18 17 17 17 18 19 21 21 19 19 19 19 19 19 20 21 22 22 22 21 21 20 20 20 19 20 18 18 16 15 14 14 12 11 10 12 12 11 12 12 11 11 13 15 15 13 13
21 -0 -6 -1 -2 -1 -4 3 4 8 6 2 4 5 4 5 8 8 4 3 2 3 2 -3 -5 6 12 16 16 16 17 17 17 16 15 16 18 18 18 18 17 16 17 18 19 20 21 20 19 19 19 19 19 19 19 20 20 20 20 19 18 18 18 16 15 14 13 12 12 10 9 8 8 8 9 10 9 10 10 12 14 14 15 14 13 12
1 9 -4 -2 4 5 3 8 2 6 5 4 3 7 6 6 6 6 3 3 0 5 4 1 -1 2 14 12 15 15 14 16 17 15 15 15 17 19 19 18 17 16 17 18 18 20 20 20 19 19 19 19 19 19 18 18 19 19 18 18 17 17 15 14 11 10 10 10 9 8 7 7 7 8 7 8 8 10 12 13 13 14 14 13 12 11
5 10 -1 4 3 3 2 2 3 4 4 4 3 5 9 6 7 6 3 2 3 4 4 3 3 7 13 11 11 12 14 14 17 16 15 16 17 20 20 18 17 16 16 18 18 19 20 20 19 19 19 20 19 19 18 18 18 18 17 16 15 14 14 11 9 8 8 8 8 8 10 9 9 8 6 7 8 11 12 13 13 13 13 11 10 10
4 9 1 4 6 5 8 7 3 11 4 7 7 10 9 7 7 6 5 3 5 8 9 9 11 11 9 6 7 11 13 15 15 17 15 15 17 21 21 19 18 17 17 18 19 20 21 21 18 18 20 20 20 19 18 18 18 18 17 16 15 12 12 11 8 8 6 6 7 12 8 7 6 7 7 9 11 12 12 13 12 11 10 10 9 9
5 5 8 2 3 4 4 4 7 9 5 7 9 11 11 10 6 6 4 7 13 9 6 13 11 9 8 6 6 10 12 15 15 17 16 16 16 21 21 19 20 16 17 18 19 21 20 19 18 18 20 21 20 19 19 18 18 18 18 17 16 13 10 10 9 8 11 7 8 9 10 8 7 7 9 11 12 12 12 11 10 9 9 10 9 9
4 6 7 3 8 9 8 7 7 7 9 12 11 11 11 11 12 9 9 13 13 8 7 8 9 9 8 7 8 11 12 14 15 17 17 17 16 20 21 18 16 15 16 17 19 18 17 15 17 18 20 20 20 19 19 18 18 18 18 18 18 17 16 12 10 9 8 9 8 8 8 8 7 11 11 11 11 10 10 10 9 10 10 10 9 9
7 8 6 4 9 10 10 11 10 9 9 10 8 9 13 13 11 12 12 13 12 12 11 8 7 10 10 9 9 11 12 13 15 18 17 16 15 18 20 17 15 14 14 17 18 15 14 14 15 17 17 18 18 18 18 18 17 17 17 18 19 18 17 13 10 10 11 10 9 9 10 11 11 11 11 10 9 9 9 9 9 10 10 9 9 10
14 10 11 5 6 10 10 8 7 10 9 8 7 7 10 12 13 11 10 12 12 10 11 9 7 7 10 11 11 12 9 10 12 14 15 14 14 16 18 16 14 13 13 16 16 14 14 14 15 15 15 16 17 17 17 17 17 17 18 18 19 19 18 15 11 10 9 11 11 12 12 12 11 11 9 8 8 8 9 9 9 10 10 10 9 9
7 8 4 -0 7 10 10 9 10 11 9 7 5 5 8 9 9 10 8 11 12 8 9 7 5 7 12 13 11 10 9 9 12 14 14 13 13 16 17 15 14 13 13 16 15 14 13 14 14 14 15 16 16 15 16 17 17 18 18 17 18 18 19 18 14 11 12 13 13 12 12 11 9 8 8 8 7 8 9 10 10 9 10 9 9 9
4 4 6 1 6 8 10 11 12 11 9 4 4 4 7 9 7 8 8 11 14 13 8 6 6 11 14 13 10 9 9 9 10 14 14 12 12 15 16 14 13 12 12 15 14 13 14 14 13 13 16 16 14 15 17 17 17 16 16 16 17 18 18 18 17 15 14 14 13 12 11 9 8 7 7 9 8 9 9 9 9 9 9 8 9 8
6 8 6 5 5 6 11 12 13 9 2 3 6 8 7 6 5 6 6 7 12 13 11 13 12 13 13 11 10 9 9 10 13 13 13 12 14 16 15 13 12 12 13 14 13 13 13 12 11 14 15 14 14 17 17 16 15 16 16 16 17 18 19 19 18 17 15 14 12 11 10 9 8 9 9 8 8 9 9 9 8 8 8 8 8 8
8 6 8 1 6 8 11 12 5 -6 -0 9 9 10 10 8 8 5 6 9 15 15 13 12 11 12 10 9 9 9 10 10 9 8 9 12 15 15 12 10 11 12 13 14 13 12 10 9 12 14 13 14 17 16 15 14 14 15 16 17 18 18 19 19 17 16 14 13 12 11 10 9 9 9 8 8 8 8 8 8 8 8 8 7 7 7
9 9 7 9 2 7 7 5 -4 -2 7 11 10 11 10 8 6 4 2 14 14 14 14 11 11 10 8 8 9 9 8 6 4 5 8 12 14 9 8 7 9 11 13 12 10 9 9 11 12 11 12 17 15 13 13 14 15 16 17 18 18 19 19 18 16 14 13 12 12 11 10 10 10 9 9 8 8 7 7 7 7 7 7 7 7 7
14 5 1 6 8 8 7 2 5 9 8 7 8 11 9 6 5 3 1 3 10 12 13 11 9 8 8 9 8 7 6 4 2 1 7 11 7 6 7 8 9 13 12 10 9 9 11 11 10 11 15 14 13 12 13 14 15 15 16 16 18 18 18 17 15 13 12 12 12 12 12 11 10 9 9 8 8 7 7 7 7 7 7 6 7 6
13 8 9 4 7 6 5 0 -2 -4 -5 -2 9 11 11 7 6 4 3 2 13 13 11 9 7 7 8 8 7 6 4 2 -0 0 2 4 5 6 7 7 11 14 12 10 10 11 11 8 9 14 14 12 11 12 13 13 13 14 15 16 17 17 17 16 15 14 13 12 13 13 13 12 11 10 9 9 8 7 8 7 8 7 7 6 6 6
8 11 6 2 4 -2 -2 -2 -5 -6 -3 7 10 11 9 6 5 2 3 -2 14 11 9 8 7 8 9 8 6 5 3 -0 -0 2 2 3 5 6 4 4 6 10 10 9 10 11 9 8 11 14 13 11 11 11 12 12 13 14 14 15 15 15 15 15 16 15 14 14 14 13 13 12 11 10 9 9 8 8 8 8 7 7 7 6 6 6
3 0 2 -0 3 4 -0 -2 -7 -3 -4 5 9 7 6 6 2 0 -9 -5 9 6 8 9 8 9 9 8 6 4 2 -0 1 2 3 3 4 5 3 3 3 3 4 8 11 10 9 10 12 12 11 11 11 11 11 12 13 13 13 13 13 13 14 15 15 16 15 14 14 13 12 12 11 10 9 9 8 8 8 8 7 7 6 6 6 5
-3 -1 -1 -2 -1 2 3 -7 -10 -5 7 8 8 7 6 4 3 -8 -9 -2 5 7 9 9 9 10 9 7 5 3 3 4 4 4 3 3 4 4 3 3 3 4 5 11 11 12 9 9 10 11 11 11 11 11 11 12 12 12 12 12 12 12 13 13 13 13 13 13 12 12 11 11 11 10 10 9 9 8 8 7 7 6 5 5 4 3
3 1 3 -7 -2 -4 -9 -7 -4 -2 4 7 8 6 6 2 -4 -4 4 8 8 9 10 11 11 10 8 7 5 5 4 4 5 5 4 4 3 4 4 4 4 5 9 11 10 10 9 9 9 10 12 11 10 10 11 11 11 11 11 11 10 11 11 10 11 11 11 11 11 11 11 10 10 10 9 9 8 7 7 7 7 5 4 4 3 2
1 -2 -6 -3 -1 -1 -6 -9 -9 -12 -1 8 8 5 6 3 4 9 9 9 9 11 11 11 11 10 9 7 6 5 5 5 5 5 5 5 4 4 4 4 4 6 6 6 9 10 10 9 8 9 12 11 9 9 10 10 10 10 10 9 10 11 10 10 9 10 10 10 10 9 9 9 9 9 8 8 7 7 6 5 4 4 3 3 2 1
3 -2 -5 -3 5 -4 -5 -8 -9 -4 7 10 7 5 7 9 11 10 8 7 8 11 11 10 9 9 8 7 6 6 6 6 6 6 6 5 5 5 5 5 6 6 6 8 9 10 10 7 7 10 12 10 9 9 9 9 9 9 9 8 10 10 10 10 9 9 9 8 8 8 8 7 7 7 7 6 6 5 4 3 3 2 2 2 0 -0
7 1 -4 -1 -2 -5 -3 -1 5 10 11 10 7 8 12 12 10 8 7 7 8 10 11 10 10 9 8 7 7 7 7 7 7 6 6 5 5 5 6 6 6 6 7 8 10 10 8 7 9 11 10 9 8 8 8 8 8 8 8 9 9 9 9 9 8 7 7 7 7 6 6 6 5 5 5 5 5 4 2 1 1 0 -0 -0 -1 -2
9 8 9 4 2 7 9 9 11 8 7 7 9 10 9 9 7 7 6 6 9 12 13 11 10 9 9 9 9 9 8 8 7 7 6 6 6 6 7 7 7 7 7 9 9 7 7 9 11 10 8 7 7 7 7 7 7 7 7 8 8 8 8 8 7 7 6 6 6 5 5 4 4 4 4 3 4 3 2 0 -1 -1 -2 -2 -2 -3
9 10 9 3 6 4 -1 4 5 6 8 9 9 9 9 7 7 6 5 6 11 13 13 12 11 10 11 12 11 9 8 8 7 7 7 7 7 7 8 7 7 7 8 8 8 7 8 9 9 8 7 8 8 6 6 5 6 6 7 7 7 7 7 7 7 6 5 5 5 4 4 3 2 2 2 1 0 -1 -2 -3 -4 -4 -5 -5 -5 -5
1 10 8 8 7 7 6 7 8 9 9 10 9 8 7 7 6 6 7 7 7 9 11 12 14 14 13 11 9 8 8 8 8 8 8 9 9 9 9 8 8 8 8 8 8 7 7 8 8 8 8 7 7 5 5 5 4 5 6 6 7 6 6 6 6 5 5 5 4 3 3 2 -0 -0 -1 -2 -3 -4 -6 -7 -6 -5 -5 -5 -5 -6
4 10 0 6 6 8 8 7 8 10 10 9 8 7 7 6 6 6 6 7 9 11 13 13 11 11 10 9 9 9 8 9 9 10 10 11 11 10 10 9 10 9 9 8 8 7 7 7 8 8 8 7 6 4 3 3 4 4 4 5 5 6 6 5 5 4 3 2 3 2 2 1 -0 -1 -2 -4 -6 -6 -5 -5 -5 -5 -6 -6 -6 -4
8 5 9 9 5 4 4 7 11 6 5 8 8 7 6 6 7 6 7 9 12 11 10 9 9 10 10 9 9 9 9 10 11 12 12 12 11 10 10 11 11 9 9 9 8 6 6 7 7 8 7 7 5 4 3 3 3 3 3 3 4 5 5 4 4 3 2 2 1 0 0 -0 -1 -3 -2 -4 -5 -6 -6 -2 0 -2 -4 -5 -1 -1
9 10 11 8 7 5 9 12 12 12 9 8 7 7 7 7 7 7 9 10 9 9 10 10 9 10 10 10 10 11 11 13 13 13 12 11 11 12 12 11 11 10 9 8 6 5 5 6 6 7 6 6 5 3 3 2 2 1 1 2 3 4 4 4 3 2 1 0 0 0 -0 -1 -2 -2 -3 -3 -3 -3 -4 -5 -2 6 6 3 -0 0